Renton, WA
on Wednesday, January 23, 2013

Wednesday
Previous Day Next Day
Daily Summary
 ActualAverage (KSEA)Record (KSEA)
Temperature
Mean Temperature °F 43°F  
Max Temperature 43°F 48°F 56°F (2001)
Min Temperature 36°F 37°F 16°F (1949)
Degree Days
Heating Degree Days 26 22  
Month to date heating degree days 534  
Since 1 July heating degree days 2472  
Cooling Degree Days 0 0  
Month to date cooling degree days 0  
Year to date cooling degree days 0  
Moisture
Dew Point 36°F   
Average Humidity 83    
Maximum Humidity 93    
Minimum Humidity 51    
Precipitation
Precipitation 0.16 in 0.17 in 1.36 in (1959)
Month to date precipitation 4.29  
Year to date precipitation 4.29  
Snow
Snow 0.00 in in 3.00 in (1952)
Month to date snowfall  
Since 1 July snowfall  
Snow Depth in   
Wind
Wind Speed 4 mph   
Max Wind Speed 9 mph   
Max Gust Speed mph   
Visibility 8 miles   
Events Rain   

Key: T is trace of precipitation, MM is missing value
Source: NWS Daily Summary
Time(PST)TemperatureDew PointHumidity Pressure Visibility Wind DirectionWind SpeedGust SpeedPrecipitationEvents Conditions
12:53 AM 36.0°F 34.0°F 93% 29.96 in 5.0 miles Variable 3.5 mph - N/A   Mostly Cloudy
1:53 AM 39.0°F 33.1°F 79% 29.96 in 7.0 miles SSE 9.2 mph - N/A   Overcast
2:53 AM 39.9°F 32.0°F 73% 29.95 in 10.0 miles SE 4.6 mph - N/A   Overcast
3:53 AM 37.9°F 34.0°F 86% 29.97 in 6.0 miles Calm Calm - N/A   Overcast
4:53 AM 39.0°F 32.0°F 76% 29.95 in 10.0 miles ESE 3.5 mph - N/A   Overcast
5:53 AM 39.9°F 30.9°F 70% 29.92 in 10.0 miles SE 3.5 mph - N/A   Overcast
6:53 AM 39.0°F 33.1°F 79% 29.91 in 8.0 miles Calm Calm - N/A   Overcast
7:53 AM 43.0°F 26.1°F 51% 29.92 in 10.0 miles SSE 3.5 mph - N/A   Overcast
8:53 AM 41.0°F 30.9°F 67% 29.89 in 10.0 miles Calm Calm - N/A   Overcast
9:53 AM 42.1°F 35.1°F 76% 29.91 in 10.0 miles WNW 3.5 mph - N/A   Overcast
10:53 AM 43.0°F 35.1°F 74% 29.91 in 10.0 miles Calm Calm - N/A   Overcast
11:53 AM 42.1°F 35.1°F 76% 29.89 in 6.0 miles Calm Calm - 0.00 in Rain Light Rain
12:53 PM 43.0°F 37.9°F 82% 29.87 in 5.0 miles East 3.5 mph - 0.03 in Rain Light Rain
1:53 PM 43.0°F 37.0°F 80% 29.86 in 10.0 miles SSE 4.6 mph - 0.01 in Rain Light Rain
2:53 PM 41.0°F 39.0°F 93% 29.90 in 3.0 miles SSE 4.6 mph - 0.03 in Rain Light Rain
3:12 PM 41.0°F 39.2°F 93% 29.89 in 4.0 miles South 4.6 mph - 0.02 in Rain Light Rain
3:53 PM 42.1°F 39.9°F 92% 29.93 in 4.0 miles SE 3.5 mph - 0.04 in Rain Light Rain
4:53 PM 41.0°F 39.0°F 93% 29.95 in 6.0 miles SE 3.5 mph - 0.04 in Rain Light Rain
5:34 PM 42.8°F 41.0°F 93% 29.94 in 10.0 miles South 8.1 mph - 0.01 in   Overcast
5:53 PM 43.0°F 41.0°F 93% 29.97 in 10.0 miles South 5.8 mph - 0.01 in   Overcast
6:53 PM 43.0°F 39.9°F 89% 30.00 in 10.0 miles SSE 8.1 mph - N/A   Overcast
7:00 PM 42.8°F 39.2°F 87% 29.99 in 10.0 miles SSE 4.6 mph - N/A   Overcast
7:53 PM 43.0°F 39.9°F 89% 30.04 in 10.0 miles SE 4.6 mph - N/A   Overcast
8:53 PM 43.0°F 39.9°F 89% 30.07 in 10.0 miles SSE 6.9 mph - N/A   Overcast
9:53 PM 43.0°F 39.9°F 89% 30.10 in 10.0 miles ESE 3.5 mph - N/A   Overcast
10:53 PM 43.0°F 39.0°F 86% 30.13 in 10.0 miles South 8.1 mph - N/A   Overcast
11:53 PM 43.0°F 39.0°F 86% 30.16 in 10.0 miles SSE 9.2 mph - N/A   Overcast
Moon Phase
Jan. 23 Jan. 26 Feb. 03 Feb. 10 Feb. 17
Sunrise:07:45 AM (PST) Moon Rise:02:08 PM (PST)
Sunset:04:57 PM (PST) Moon Set:05:04 AM (PST)

Copyright © 2014 The Weather Underground, Inc.